Year,Month,Day,Hour,Minute,Value (Times are PST for temperature in C)
2014,08,11,00,00,19.80
2014,08,11,00,01,19.70
2014,08,11,00,02,19.70
2014,08,11,00,03,19.70
2014,08,11,00,04,19.70
2014,08,11,00,05,19.70
2014,08,11,00,06,19.70
2014,08,11,00,07,19.60
2014,08,11,00,08,19.60
2014,08,11,00,09,19.60
2014,08,11,00,10,19.60
2014,08,11,00,11,19.50
2014,08,11,00,12,19.60
2014,08,11,00,13,19.50
2014,08,11,00,14,19.50
2014,08,11,00,15,19.50
2014,08,11,00,16,19.50
2014,08,11,00,17,19.50
2014,08,11,00,18,19.50
2014,08,11,00,19,19.40
2014,08,11,00,20,19.40
2014,08,11,00,21,19.40
2014,08,11,00,22,19.30
2014,08,11,00,23,19.30
2014,08,11,00,24,19.30
2014,08,11,00,25,19.20
2014,08,11,00,26,19.20
2014,08,11,00,27,19.20
2014,08,11,00,28,19.10
2014,08,11,00,29,19.10
2014,08,11,00,30,19.10
2014,08,11,00,31,19.00
2014,08,11,00,32,19.00
2014,08,11,00,33,19.00
2014,08,11,00,34,19.00
2014,08,11,00,35,19.00
2014,08,11,00,36,19.00
2014,08,11,00,37,19.00
2014,08,11,00,38,19.00
2014,08,11,00,39,19.00
2014,08,11,00,40,18.90
2014,08,11,00,41,18.90
2014,08,11,00,42,18.90
2014,08,11,00,43,18.90
2014,08,11,00,44,18.90
2014,08,11,00,45,18.90
2014,08,11,00,46,18.80
2014,08,11,00,47,18.80
2014,08,11,00,48,18.80
2014,08,11,00,49,18.80
2014,08,11,00,50,18.80
2014,08,11,00,51,18.80
2014,08,11,00,52,18.80
2014,08,11,00,53,18.80
2014,08,11,00,54,18.80
2014,08,11,00,55,18.80
2014,08,11,00,56,18.70
2014,08,11,00,57,18.70
2014,08,11,00,58,18.70
2014,08,11,00,59,18.70
2014,08,11,01,00,18.70
2014,08,11,01,01,18.60
2014,08,11,01,02,18.60
2014,08,11,01,03,18.60
2014,08,11,01,04,18.50
2014,08,11,01,05,18.50
2014,08,11,01,06,18.50
2014,08,11,01,07,18.50
2014,08,11,01,08,18.40
2014,08,11,01,09,18.40
2014,08,11,01,10,18.40
2014,08,11,01,11,18.40
2014,08,11,01,12,18.40
2014,08,11,01,13,18.30
2014,08,11,01,14,18.30
2014,08,11,01,15,18.30
2014,08,11,01,16,18.30
2014,08,11,01,17,18.20
2014,08,11,01,18,18.20
2014,08,11,01,19,18.20
2014,08,11,01,20,18.20
2014,08,11,01,21,18.20
2014,08,11,01,22,18.20
2014,08,11,01,23,18.20
2014,08,11,01,24,18.20
2014,08,11,01,25,18.10
2014,08,11,01,26,18.10
2014,08,11,01,27,18.10
2014,08,11,01,28,18.10
2014,08,11,01,29,18.10
2014,08,11,01,30,18.00
2014,08,11,01,31,18.00
2014,08,11,01,32,18.00
2014,08,11,01,33,18.00
2014,08,11,01,34,18.00
2014,08,11,01,35,18.00
2014,08,11,01,36,18.00
2014,08,11,01,37,18.00
2014,08,11,01,38,18.00
2014,08,11,01,39,18.00
2014,08,11,01,40,18.00
2014,08,11,01,41,18.00
2014,08,11,01,42,18.00
2014,08,11,01,43,18.00
2014,08,11,01,44,18.00
2014,08,11,01,45,18.00
2014,08,11,01,46,18.00
2014,08,11,01,47,17.90
2014,08,11,01,48,17.90
2014,08,11,01,49,17.90
2014,08,11,01,50,17.90
2014,08,11,01,51,17.90
2014,08,11,01,52,17.90
2014,08,11,01,53,17.90
2014,08,11,01,54,17.90
2014,08,11,01,55,17.80
2014,08,11,01,56,17.80
2014,08,11,01,57,17.80
2014,08,11,01,58,17.80
2014,08,11,01,59,17.70
2014,08,11,02,00,17.70
2014,08,11,02,01,17.70
2014,08,11,02,02,17.70
2014,08,11,02,03,17.70
2014,08,11,02,04,17.60
2014,08,11,02,05,17.60
2014,08,11,02,06,17.60
2014,08,11,02,07,17.60
2014,08,11,02,08,17.60
2014,08,11,02,09,17.50
2014,08,11,02,10,17.50
2014,08,11,02,11,17.40
2014,08,11,02,12,17.40
2014,08,11,02,13,17.40
2014,08,11,02,14,17.40
2014,08,11,02,15,17.30
2014,08,11,02,16,17.30
2014,08,11,02,17,17.30
2014,08,11,02,18,17.30
2014,08,11,02,19,17.30
2014,08,11,02,20,17.30
2014,08,11,02,21,17.30
2014,08,11,02,22,17.30
2014,08,11,02,23,17.30
2014,08,11,02,24,17.30
2014,08,11,02,25,17.30
2014,08,11,02,26,17.30
2014,08,11,02,27,17.30
2014,08,11,02,28,17.30
2014,08,11,02,29,17.30
2014,08,11,02,30,17.30
2014,08,11,02,31,17.30
2014,08,11,02,32,17.40
2014,08,11,02,33,17.40
2014,08,11,02,34,17.40
2014,08,11,02,35,17.40
2014,08,11,02,36,17.40
2014,08,11,02,37,17.30
2014,08,11,02,38,17.30
2014,08,11,02,39,17.30
2014,08,11,02,40,17.30
2014,08,11,02,41,17.30
2014,08,11,02,42,17.30
2014,08,11,02,43,17.30
2014,08,11,02,44,17.20
2014,08,11,02,45,17.20
2014,08,11,02,46,17.20
2014,08,11,02,47,17.20
2014,08,11,02,48,17.20
2014,08,11,02,49,17.20
2014,08,11,02,50,17.20
2014,08,11,02,51,17.20
2014,08,11,02,52,17.20
2014,08,11,02,53,17.20
2014,08,11,02,54,17.20
2014,08,11,02,55,17.10
2014,08,11,02,56,17.10
2014,08,11,02,57,17.10
2014,08,11,02,58,17.10
2014,08,11,02,59,17.10
2014,08,11,03,00,17.10
2014,08,11,03,01,17.10
2014,08,11,03,02,17.10
2014,08,11,03,03,17.00
2014,08,11,03,04,17.00
2014,08,11,03,05,17.00
2014,08,11,03,06,16.90
2014,08,11,03,07,16.90
2014,08,11,03,08,16.80
2014,08,11,03,09,16.80
2014,08,11,03,10,16.70
2014,08,11,03,11,16.70
2014,08,11,03,12,16.60
2014,08,11,03,13,16.60
2014,08,11,03,14,16.50
2014,08,11,03,15,16.50
2014,08,11,03,16,16.40
2014,08,11,03,17,16.40
2014,08,11,03,18,16.40
2014,08,11,03,19,16.40
2014,08,11,03,20,16.30
2014,08,11,03,21,16.30
2014,08,11,03,22,16.30
2014,08,11,03,23,16.30
2014,08,11,03,24,16.30
2014,08,11,03,25,16.30
2014,08,11,03,26,16.30
2014,08,11,03,27,16.30
2014,08,11,03,28,16.30
2014,08,11,03,29,16.30
2014,08,11,03,30,16.30
2014,08,11,03,31,16.30
2014,08,11,03,32,16.30
2014,08,11,03,33,16.30
2014,08,11,03,34,16.30
2014,08,11,03,35,16.30
2014,08,11,03,36,16.20
2014,08,11,03,37,16.20
2014,08,11,03,38,16.20
2014,08,11,03,39,16.20
2014,08,11,03,40,16.20
2014,08,11,03,41,16.20
2014,08,11,03,42,16.20
2014,08,11,03,43,16.20
2014,08,11,03,44,16.20
2014,08,11,03,45,16.20
2014,08,11,03,46,16.20
2014,08,11,03,47,16.10
2014,08,11,03,48,16.10
2014,08,11,03,49,16.10
2014,08,11,03,50,16.10
2014,08,11,03,51,16.10
2014,08,11,03,52,16.00
2014,08,11,03,53,16.00
2014,08,11,03,54,16.00
2014,08,11,03,55,16.00
2014,08,11,03,56,15.90
2014,08,11,03,57,15.90
2014,08,11,03,58,15.90
2014,08,11,03,59,15.90
2014,08,11,04,00,15.90
2014,08,11,04,01,15.90
2014,08,11,04,02,15.80
2014,08,11,04,03,15.80
2014,08,11,04,04,15.80
2014,08,11,04,05,15.80
2014,08,11,04,06,15.80
2014,08,11,04,07,15.80
2014,08,11,04,08,15.90
2014,08,11,04,09,15.90
2014,08,11,04,10,15.90
2014,08,11,04,11,15.90
2014,08,11,04,12,15.90
2014,08,11,04,13,15.90
2014,08,11,04,14,15.90
2014,08,11,04,15,15.90
2014,08,11,04,16,15.90
2014,08,11,04,17,15.90
2014,08,11,04,18,15.90
2014,08,11,04,19,15.90
2014,08,11,04,20,15.90
2014,08,11,04,21,15.90
2014,08,11,04,22,15.90
2014,08,11,04,23,15.90
2014,08,11,04,24,15.90
2014,08,11,04,25,15.90
2014,08,11,04,26,15.90
2014,08,11,04,27,15.90
2014,08,11,04,28,15.90
2014,08,11,04,29,15.90
2014,08,11,04,30,15.90
2014,08,11,04,31,15.90
2014,08,11,04,32,15.90
2014,08,11,04,33,15.90
2014,08,11,04,34,16.00
2014,08,11,04,35,15.90
2014,08,11,04,36,15.90
2014,08,11,04,37,15.90
2014,08,11,04,38,15.90
2014,08,11,04,39,15.90
2014,08,11,04,40,15.80
2014,08,11,04,41,15.80
2014,08,11,04,42,15.80
2014,08,11,04,43,15.80
2014,08,11,04,44,15.80
2014,08,11,04,45,15.80
2014,08,11,04,46,15.80
2014,08,11,04,47,15.70
2014,08,11,04,48,15.70
2014,08,11,04,49,15.70
2014,08,11,04,50,15.70
2014,08,11,04,51,15.70
2014,08,11,04,52,15.70
2014,08,11,04,53,15.70
2014,08,11,04,54,15.60
2014,08,11,04,55,15.60
2014,08,11,04,56,15.60
2014,08,11,04,57,15.60
2014,08,11,04,58,15.50
2014,08,11,04,59,15.50
2014,08,11,05,00,15.50
2014,08,11,05,01,15.50
2014,08,11,05,02,15.40
2014,08,11,05,03,15.40
2014,08,11,05,04,15.40
2014,08,11,05,05,15.40
2014,08,11,05,06,15.40
2014,08,11,05,07,15.40
2014,08,11,05,08,15.40
2014,08,11,05,09,15.40
2014,08,11,05,10,15.40
2014,08,11,05,11,15.40
2014,08,11,05,12,15.40
2014,08,11,05,13,15.50
2014,08,11,05,14,15.50
2014,08,11,05,15,15.40
2014,08,11,05,16,15.40
2014,08,11,05,17,15.40
2014,08,11,05,18,15.40
2014,08,11,05,19,15.40
2014,08,11,05,20,15.30
2014,08,11,05,21,15.30
2014,08,11,05,22,15.30
2014,08,11,05,23,15.30
2014,08,11,05,24,15.30
2014,08,11,05,25,15.20
2014,08,11,05,26,15.20
2014,08,11,05,27,15.20
2014,08,11,05,28,15.20
2014,08,11,05,29,15.20
2014,08,11,05,30,15.30
2014,08,11,05,31,15.30
2014,08,11,05,32,15.30
2014,08,11,05,33,15.30
2014,08,11,05,34,15.30
2014,08,11,05,35,15.30
2014,08,11,05,36,15.30
2014,08,11,05,37,15.30
2014,08,11,05,38,15.30
2014,08,11,05,39,15.30
2014,08,11,05,40,15.30
2014,08,11,05,41,15.20
2014,08,11,05,42,15.20
2014,08,11,05,43,15.20
2014,08,11,05,44,15.20
2014,08,11,05,45,15.20
2014,08,11,05,46,15.20
2014,08,11,05,47,15.20
2014,08,11,05,48,15.20
2014,08,11,05,49,15.20
2014,08,11,05,50,15.30
2014,08,11,05,51,15.30
2014,08,11,05,52,15.30
2014,08,11,05,53,15.40
2014,08,11,05,54,15.40
2014,08,11,05,55,15.40
2014,08,11,05,56,15.40
2014,08,11,05,57,15.40
2014,08,11,05,58,15.40
2014,08,11,05,59,15.40
2014,08,11,06,00,15.40
2014,08,11,06,01,15.40
2014,08,11,06,02,15.30
2014,08,11,06,03,15.30
2014,08,11,06,04,15.30
2014,08,11,06,05,15.30
2014,08,11,06,06,15.30
2014,08,11,06,07,15.30
2014,08,11,06,08,15.30
2014,08,11,06,09,15.30
2014,08,11,06,10,15.30
2014,08,11,06,11,15.30
2014,08,11,06,12,15.30
2014,08,11,06,13,15.30
2014,08,11,06,14,15.30
2014,08,11,06,15,15.30
2014,08,11,06,16,15.30
2014,08,11,06,17,15.30
2014,08,11,06,18,15.30
2014,08,11,06,19,15.30
2014,08,11,06,20,15.40
2014,08,11,06,21,15.40
2014,08,11,06,22,15.40
2014,08,11,06,23,15.40
2014,08,11,06,24,15.40
2014,08,11,06,25,15.40
2014,08,11,06,26,15.50
2014,08,11,06,27,15.50
2014,08,11,06,28,15.50
2014,08,11,06,29,15.50
2014,08,11,06,30,15.50
2014,08,11,06,31,15.50
2014,08,11,06,32,15.50
2014,08,11,06,33,15.50
2014,08,11,06,34,15.50
2014,08,11,06,35,15.50
2014,08,11,06,36,15.50
2014,08,11,06,37,15.50
2014,08,11,06,38,15.50
2014,08,11,06,39,15.50
2014,08,11,06,40,15.50
2014,08,11,06,41,15.50
2014,08,11,06,42,15.50
2014,08,11,06,43,15.50
2014,08,11,06,44,15.50
2014,08,11,06,45,15.50
2014,08,11,06,46,15.50
2014,08,11,06,47,15.50
2014,08,11,06,48,15.50
2014,08,11,06,49,15.50
2014,08,11,06,50,15.50
2014,08,11,06,51,15.50
2014,08,11,06,52,15.60
2014,08,11,06,53,15.60
2014,08,11,06,54,15.60
2014,08,11,06,55,15.60
2014,08,11,06,56,15.60
2014,08,11,06,57,15.70
2014,08,11,06,58,15.70
2014,08,11,06,59,15.70
2014,08,11,07,00,15.70
2014,08,11,07,01,15.70
2014,08,11,07,02,15.70
2014,08,11,07,03,15.80
2014,08,11,07,04,15.80
2014,08,11,07,05,15.80
2014,08,11,07,06,15.80
2014,08,11,07,07,15.80
2014,08,11,07,08,15.80
2014,08,11,07,09,15.80
2014,08,11,07,10,15.80
2014,08,11,07,11,15.80
2014,08,11,07,12,15.80
2014,08,11,07,13,15.80
2014,08,11,07,14,15.80
2014,08,11,07,15,15.90
2014,08,11,07,16,15.90
2014,08,11,07,17,15.90
2014,08,11,07,18,16.00
2014,08,11,07,19,16.00
2014,08,11,07,20,16.00
2014,08,11,07,21,16.10
2014,08,11,07,22,16.10
2014,08,11,07,23,16.10
2014,08,11,07,24,16.10
2014,08,11,07,25,16.20
2014,08,11,07,26,16.20
2014,08,11,07,27,16.20
2014,08,11,07,28,16.20
2014,08,11,07,29,16.30
2014,08,11,07,30,16.30
2014,08,11,07,31,16.30
2014,08,11,07,32,16.40
2014,08,11,07,33,16.40
2014,08,11,07,34,16.50
2014,08,11,07,35,16.50
2014,08,11,07,36,16.50
2014,08,11,07,37,16.60
2014,08,11,07,38,16.60
2014,08,11,07,39,16.70
2014,08,11,07,40,16.70
2014,08,11,07,41,16.70
2014,08,11,07,42,16.80
2014,08,11,07,43,16.80
2014,08,11,07,44,16.90
2014,08,11,07,45,16.90
2014,08,11,07,46,17.00
2014,08,11,07,47,17.00
2014,08,11,07,48,17.10
2014,08,11,07,49,17.10
2014,08,11,07,50,17.20
2014,08,11,07,51,17.20
2014,08,11,07,52,17.30
2014,08,11,07,53,17.30
2014,08,11,07,54,17.30
2014,08,11,07,55,17.40
2014,08,11,07,56,17.40
2014,08,11,07,57,17.50
2014,08,11,07,58,17.60
2014,08,11,07,59,17.60
2014,08,11,08,00,17.70
2014,08,11,08,01,17.70
2014,08,11,08,02,17.70
2014,08,11,08,03,17.80
2014,08,11,08,04,17.80
2014,08,11,08,05,17.90
2014,08,11,08,06,17.90
2014,08,11,08,07,18.00
2014,08,11,08,08,18.00
2014,08,11,08,09,18.10
2014,08,11,08,10,18.10
2014,08,11,08,11,18.20
2014,08,11,08,12,18.20
2014,08,11,08,13,18.30
2014,08,11,08,14,18.40
2014,08,11,08,15,18.40
2014,08,11,08,16,18.50
2014,08,11,08,17,18.60
2014,08,11,08,18,18.60
2014,08,11,08,19,18.70
2014,08,11,08,20,18.70
2014,08,11,08,21,18.80
2014,08,11,08,22,18.80
2014,08,11,08,23,18.90
2014,08,11,08,24,19.00
2014,08,11,08,25,19.00
2014,08,11,08,26,19.10
2014,08,11,08,27,19.20
2014,08,11,08,28,19.20
2014,08,11,08,29,19.30
2014,08,11,08,30,19.30
2014,08,11,08,31,19.40
2014,08,11,08,32,19.50
2014,08,11,08,33,19.50
2014,08,11,08,34,19.60
2014,08,11,08,35,19.60
2014,08,11,08,36,19.70
2014,08,11,08,37,19.80
2014,08,11,08,38,19.90
2014,08,11,08,39,20.00
2014,08,11,08,40,20.10
2014,08,11,08,41,20.20
2014,08,11,08,42,20.30
2014,08,11,08,43,20.40
2014,08,11,08,44,20.50
2014,08,11,08,45,20.60
2014,08,11,08,46,20.70
2014,08,11,08,47,20.80
2014,08,11,08,48,20.90
2014,08,11,08,49,21.00
2014,08,11,08,50,21.20
2014,08,11,08,51,21.30
2014,08,11,08,52,21.40
2014,08,11,08,53,21.50
2014,08,11,08,54,21.60
2014,08,11,08,55,21.80
2014,08,11,08,56,21.90
2014,08,11,08,57,22.00
2014,08,11,08,58,22.10
2014,08,11,08,59,22.30
2014,08,11,09,00,22.40
2014,08,11,09,01,22.50
2014,08,11,09,02,22.70
2014,08,11,09,03,22.80
2014,08,11,09,04,22.90
2014,08,11,09,05,23.00
2014,08,11,09,06,23.10
2014,08,11,09,07,23.20
2014,08,11,09,08,23.30
2014,08,11,09,09,23.30
2014,08,11,09,10,23.40
2014,08,11,09,11,23.50
2014,08,11,09,12,23.60
2014,08,11,09,13,23.70
2014,08,11,09,14,23.80
2014,08,11,09,15,23.80
2014,08,11,09,16,23.90
2014,08,11,09,17,24.00
2014,08,11,09,18,24.10
2014,08,11,09,19,24.10
2014,08,11,09,20,24.20
2014,08,11,09,21,24.20
2014,08,11,09,22,24.30
2014,08,11,09,23,24.30
2014,08,11,09,24,24.30
2014,08,11,09,25,24.30
2014,08,11,09,26,24.40
2014,08,11,09,27,24.40
2014,08,11,09,28,24.40
2014,08,11,09,29,24.40
2014,08,11,09,30,24.40
2014,08,11,09,31,24.50
2014,08,11,09,32,24.50
2014,08,11,09,33,24.50
2014,08,11,09,34,24.50
2014,08,11,09,35,24.50
2014,08,11,09,36,24.50
2014,08,11,09,37,24.60
2014,08,11,09,38,24.60
2014,08,11,09,39,24.60
2014,08,11,09,40,24.70
2014,08,11,09,41,24.70
2014,08,11,09,42,24.80
2014,08,11,09,43,24.80
2014,08,11,09,44,24.90
2014,08,11,09,45,24.90
2014,08,11,09,46,25.00
2014,08,11,09,47,25.00
2014,08,11,09,48,25.00
2014,08,11,09,49,25.00
2014,08,11,09,50,25.00
2014,08,11,09,51,25.00
2014,08,11,09,52,25.10
2014,08,11,09,53,25.10
2014,08,11,09,54,25.10
2014,08,11,09,55,25.10
2014,08,11,09,56,25.10
2014,08,11,09,57,25.20
2014,08,11,09,58,25.20
2014,08,11,09,59,25.20
2014,08,11,10,00,25.20
2014,08,11,10,01,25.20
2014,08,11,10,02,25.30
2014,08,11,10,03,25.30
2014,08,11,10,04,25.30
2014,08,11,10,05,25.30
2014,08,11,10,06,25.40
2014,08,11,10,07,25.40
2014,08,11,10,08,25.50
2014,08,11,10,09,25.50
2014,08,11,10,10,25.60
2014,08,11,10,11,25.70
2014,08,11,10,12,25.70
2014,08,11,10,13,25.70
2014,08,11,10,14,25.80
2014,08,11,10,15,25.80
2014,08,11,10,16,25.90
2014,08,11,10,17,25.90
2014,08,11,10,18,26.00
2014,08,11,10,19,26.00
2014,08,11,10,20,26.00
2014,08,11,10,21,26.00
2014,08,11,10,22,26.10
2014,08,11,10,23,26.10
2014,08,11,10,24,26.10
2014,08,11,10,25,26.10
2014,08,11,10,26,26.10
2014,08,11,10,27,26.20
2014,08,11,10,28,26.20
2014,08,11,10,29,26.30
2014,08,11,10,30,26.30
2014,08,11,10,31,26.30
2014,08,11,10,32,26.40
2014,08,11,10,33,26.40
2014,08,11,10,34,26.50
2014,08,11,10,35,26.50
2014,08,11,10,36,26.60
2014,08,11,10,37,26.60
2014,08,11,10,38,26.60
2014,08,11,10,39,26.70
2014,08,11,10,40,26.70
2014,08,11,10,41,26.70
2014,08,11,10,42,26.80
2014,08,11,10,43,26.80
2014,08,11,10,44,26.90
2014,08,11,10,45,26.90
2014,08,11,10,46,26.90
2014,08,11,10,47,27.00
2014,08,11,10,48,27.10
2014,08,11,10,49,27.10
2014,08,11,10,50,27.10
2014,08,11,10,51,27.20
2014,08,11,10,52,27.20
2014,08,11,10,53,27.20
2014,08,11,10,54,27.20
2014,08,11,10,55,27.30
2014,08,11,10,56,27.30
2014,08,11,10,57,27.30
2014,08,11,10,58,27.30
2014,08,11,10,59,27.30
2014,08,11,11,00,27.30
2014,08,11,11,01,27.30
2014,08,11,11,02,27.30
2014,08,11,11,03,27.30
2014,08,11,11,04,27.40
2014,08,11,11,05,27.40
2014,08,11,11,06,27.40
2014,08,11,11,07,27.50
2014,08,11,11,08,27.60
2014,08,11,11,09,27.60
2014,08,11,11,10,27.60
2014,08,11,11,11,27.70
2014,08,11,11,12,27.70
2014,08,11,11,13,27.70
2014,08,11,11,14,27.80
2014,08,11,11,15,27.80
2014,08,11,11,16,27.80
2014,08,11,11,17,27.90
2014,08,11,11,18,27.90
2014,08,11,11,19,28.00
2014,08,11,11,20,28.10
2014,08,11,11,21,28.10
2014,08,11,11,22,28.10
2014,08,11,11,23,28.20
2014,08,11,11,24,28.20
2014,08,11,11,25,28.20
2014,08,11,11,26,28.20
2014,08,11,11,27,28.20
2014,08,11,11,28,28.20
2014,08,11,11,29,28.20
2014,08,11,11,30,28.20
2014,08,11,11,31,28.10
2014,08,11,11,32,28.10
2014,08,11,11,33,28.20
2014,08,11,11,34,28.20
2014,08,11,11,35,28.20
2014,08,11,11,36,28.10
2014,08,11,11,37,28.10
2014,08,11,11,38,28.10
2014,08,11,11,39,28.10
2014,08,11,11,40,28.20
2014,08,11,11,41,28.20
2014,08,11,11,42,28.20
2014,08,11,11,43,28.20
2014,08,11,11,44,28.20
2014,08,11,11,45,28.20
2014,08,11,11,46,28.10
2014,08,11,11,47,28.10
2014,08,11,11,48,28.10
2014,08,11,11,49,28.00
2014,08,11,11,50,28.00
2014,08,11,11,51,28.00
2014,08,11,11,52,28.00
2014,08,11,11,53,28.00
2014,08,11,11,54,28.00
2014,08,11,11,55,28.10
2014,08,11,11,56,28.10
2014,08,11,11,57,28.10
2014,08,11,11,58,28.20
2014,08,11,11,59,28.30
2014,08,11,12,00,28.30
2014,08,11,12,01,28.30
2014,08,11,12,02,28.40
2014,08,11,12,03,28.40
2014,08,11,12,04,28.30
2014,08,11,12,05,28.30
2014,08,11,12,06,28.20
2014,08,11,12,07,28.20
2014,08,11,12,08,28.20
2014,08,11,12,09,28.10
2014,08,11,12,10,28.10
2014,08,11,12,11,28.10
2014,08,11,12,12,28.10
2014,08,11,12,13,28.20
2014,08,11,12,14,28.20
2014,08,11,12,15,28.30
2014,08,11,12,16,28.30
2014,08,11,12,17,28.30
2014,08,11,12,18,28.30
2014,08,11,12,19,28.30
2014,08,11,12,20,28.30
2014,08,11,12,21,28.30
2014,08,11,12,22,28.30
2014,08,11,12,23,28.30
2014,08,11,12,24,28.30
2014,08,11,12,25,28.40
2014,08,11,12,26,28.40
2014,08,11,12,27,28.40
2014,08,11,12,28,28.40
2014,08,11,12,29,28.40
2014,08,11,12,30,28.40
2014,08,11,12,31,28.40
2014,08,11,12,32,28.50
2014,08,11,12,33,28.50
2014,08,11,12,34,28.60
2014,08,11,12,35,28.60
2014,08,11,12,36,28.60
2014,08,11,12,37,28.60
2014,08,11,12,38,28.70
2014,08,11,12,39,28.70
2014,08,11,12,40,28.70
2014,08,11,12,41,28.70
2014,08,11,12,42,28.70
2014,08,11,12,43,28.70
2014,08,11,12,44,28.70
2014,08,11,12,45,28.70
2014,08,11,12,46,28.70
2014,08,11,12,47,28.70
2014,08,11,12,48,28.60
2014,08,11,12,49,28.60
2014,08,11,12,50,28.60
2014,08,11,12,51,28.60
2014,08,11,12,52,28.60
2014,08,11,12,53,28.60
2014,08,11,12,54,28.60
2014,08,11,12,55,28.70
2014,08,11,12,56,28.70
2014,08,11,12,57,28.70
2014,08,11,12,58,28.70
2014,08,11,12,59,28.70
2014,08,11,13,00,28.70
2014,08,11,13,01,28.80
2014,08,11,13,02,28.80
2014,08,11,13,03,28.90
2014,08,11,13,04,28.90
2014,08,11,13,05,29.00
2014,08,11,13,06,29.00
2014,08,11,13,07,29.00
2014,08,11,13,08,29.10
2014,08,11,13,09,29.10
2014,08,11,13,10,29.10
2014,08,11,13,11,29.20
2014,08,11,13,12,29.20
2014,08,11,13,13,29.30
2014,08,11,13,14,29.30
2014,08,11,13,15,29.30
2014,08,11,13,16,29.30
2014,08,11,13,17,29.30
2014,08,11,13,18,29.30
2014,08,11,13,19,29.40
2014,08,11,13,20,29.40
2014,08,11,13,21,29.40
2014,08,11,13,22,29.50
2014,08,11,13,23,29.50
2014,08,11,13,24,29.60
2014,08,11,13,25,29.60
2014,08,11,13,26,29.60
2014,08,11,13,27,29.60
2014,08,11,13,28,29.60
2014,08,11,13,29,29.60
2014,08,11,13,30,29.50
2014,08,11,13,31,29.60
2014,08,11,13,32,29.60
2014,08,11,13,33,29.60
2014,08,11,13,34,29.60
2014,08,11,13,35,29.60
2014,08,11,13,36,29.60
2014,08,11,13,37,29.60
2014,08,11,13,38,29.60
2014,08,11,13,39,29.70
2014,08,11,13,40,29.70
2014,08,11,13,41,29.70
2014,08,11,13,42,29.70
2014,08,11,13,43,29.80
2014,08,11,13,44,29.80
2014,08,11,13,45,29.80
2014,08,11,13,46,29.80
2014,08,11,13,47,29.80
2014,08,11,13,48,29.80
2014,08,11,13,49,29.80
2014,08,11,13,50,29.80
2014,08,11,13,51,29.80
2014,08,11,13,52,29.90
2014,08,11,13,53,29.90
2014,08,11,13,54,30.00
2014,08,11,13,55,30.10
2014,08,11,13,56,30.10
2014,08,11,13,57,30.10
2014,08,11,13,58,30.10
2014,08,11,13,59,30.10
2014,08,11,14,00,30.20
2014,08,11,14,01,30.20
2014,08,11,14,02,30.20
2014,08,11,14,03,30.20
2014,08,11,14,04,30.20
2014,08,11,14,05,30.30
2014,08,11,14,06,30.30
2014,08,11,14,07,30.30
2014,08,11,14,08,30.30
2014,08,11,14,09,30.40
2014,08,11,14,10,30.40
2014,08,11,14,11,30.40
2014,08,11,14,12,30.50
2014,08,11,14,13,30.50
2014,08,11,14,14,30.60
2014,08,11,14,15,30.60
2014,08,11,14,16,30.70
2014,08,11,14,17,30.70
2014,08,11,14,18,30.70
2014,08,11,14,19,30.70
2014,08,11,14,20,30.70
2014,08,11,14,21,30.70
2014,08,11,14,22,30.70
2014,08,11,14,23,30.70
2014,08,11,14,24,30.70
2014,08,11,14,25,30.80
2014,08,11,14,26,30.80
2014,08,11,14,27,30.80
2014,08,11,14,28,30.80
2014,08,11,14,29,30.80
2014,08,11,14,30,30.80
2014,08,11,14,31,30.80
2014,08,11,14,32,30.90
2014,08,11,14,33,30.90
2014,08,11,14,34,30.90
2014,08,11,14,35,30.90
2014,08,11,14,36,30.80
2014,08,11,14,37,30.80
2014,08,11,14,38,30.80
2014,08,11,14,39,30.80
2014,08,11,14,40,30.80
2014,08,11,14,41,30.90
2014,08,11,14,42,30.90
2014,08,11,14,43,30.80
2014,08,11,14,44,30.80
2014,08,11,14,45,30.80
2014,08,11,14,46,30.70
2014,08,11,14,47,30.70
2014,08,11,14,48,30.70
2014,08,11,14,49,30.60
2014,08,11,14,50,30.60
2014,08,11,14,51,30.60
2014,08,11,14,52,30.60
2014,08,11,14,53,30.50
2014,08,11,14,54,30.50
2014,08,11,14,55,30.40
2014,08,11,14,56,30.40
2014,08,11,14,57,30.40
2014,08,11,14,58,30.40
2014,08,11,14,59,30.40
2014,08,11,15,00,30.50
2014,08,11,15,01,30.50
2014,08,11,15,02,30.60
2014,08,11,15,03,30.70
2014,08,11,15,04,30.70
2014,08,11,15,05,30.80
2014,08,11,15,06,30.80
2014,08,11,15,07,30.80
2014,08,11,15,08,30.90
2014,08,11,15,09,30.80
2014,08,11,15,10,30.80
2014,08,11,15,11,30.80
2014,08,11,15,12,30.80
2014,08,11,15,13,30.80
2014,08,11,15,14,30.80
2014,08,11,15,15,30.80
2014,08,11,15,16,30.70
2014,08,11,15,17,30.70
2014,08,11,15,18,30.60
2014,08,11,15,19,30.60
2014,08,11,15,20,30.60
2014,08,11,15,21,30.50
2014,08,11,15,22,30.50
2014,08,11,15,23,30.50
2014,08,11,15,24,30.40
2014,08,11,15,25,30.40
2014,08,11,15,26,30.40
2014,08,11,15,27,30.30
2014,08,11,15,28,30.30
2014,08,11,15,29,30.30
2014,08,11,15,30,30.20
2014,08,11,15,31,30.20
2014,08,11,15,32,30.20
2014,08,11,15,33,30.10
2014,08,11,15,34,30.10
2014,08,11,15,35,30.10
2014,08,11,15,36,30.10
2014,08,11,15,37,30.00
2014,08,11,15,38,30.00
2014,08,11,15,39,29.90
2014,08,11,15,40,29.90
2014,08,11,15,41,29.90
2014,08,11,15,42,29.90
2014,08,11,15,43,29.90
2014,08,11,15,44,29.90
2014,08,11,15,45,29.90
2014,08,11,15,46,29.90
2014,08,11,15,47,29.80
2014,08,11,15,48,29.80
2014,08,11,15,49,29.80
2014,08,11,15,50,29.80
2014,08,11,15,51,29.80
2014,08,11,15,52,29.70
2014,08,11,15,53,29.70
2014,08,11,15,54,29.70
2014,08,11,15,55,29.70
2014,08,11,15,56,29.70
2014,08,11,15,57,29.70
2014,08,11,15,58,29.70
2014,08,11,15,59,29.70
2014,08,11,16,00,29.70
2014,08,11,16,01,29.70
2014,08,11,16,02,29.60
2014,08,11,16,03,29.70
2014,08,11,16,04,29.70
2014,08,11,16,05,29.70
2014,08,11,16,06,29.70
2014,08,11,16,07,29.70
2014,08,11,16,08,29.70
2014,08,11,16,09,29.70
2014,08,11,16,10,29.80
2014,08,11,16,11,29.80
2014,08,11,16,12,29.80
2014,08,11,16,13,29.90
2014,08,11,16,14,29.90
2014,08,11,16,15,30.00
2014,08,11,16,16,30.00
2014,08,11,16,17,30.00
2014,08,11,16,18,30.10
2014,08,11,16,19,30.10
2014,08,11,16,20,30.10
2014,08,11,16,21,30.10
2014,08,11,16,22,30.10
2014,08,11,16,23,30.10
2014,08,11,16,24,30.20
2014,08,11,16,25,30.20
2014,08,11,16,26,30.20
2014,08,11,16,27,30.20
2014,08,11,16,28,30.20
2014,08,11,16,29,30.20
2014,08,11,16,30,30.20
2014,08,11,16,31,30.20
2014,08,11,16,32,30.20
2014,08,11,16,33,30.20
2014,08,11,16,34,30.20
2014,08,11,16,35,30.30
2014,08,11,16,36,30.30
2014,08,11,16,37,30.30
2014,08,11,16,38,30.30
2014,08,11,16,39,30.40
2014,08,11,16,40,30.40
2014,08,11,16,41,30.40
2014,08,11,16,42,30.50
2014,08,11,16,43,30.50
2014,08,11,16,44,30.60
2014,08,11,16,45,30.60
2014,08,11,16,46,30.60
2014,08,11,16,47,30.60
2014,08,11,16,48,30.60
2014,08,11,16,49,30.70
2014,08,11,16,50,30.70
2014,08,11,16,51,30.70
2014,08,11,16,52,30.70
2014,08,11,16,53,30.70
2014,08,11,16,54,30.70
2014,08,11,16,55,30.70
2014,08,11,16,56,30.70
2014,08,11,16,57,30.60
2014,08,11,16,58,30.60
2014,08,11,16,59,30.60
2014,08,11,17,00,30.60
2014,08,11,17,01,30.60
2014,08,11,17,02,30.60
2014,08,11,17,03,30.60
2014,08,11,17,04,30.60
2014,08,11,17,05,30.60
2014,08,11,17,06,30.60
2014,08,11,17,07,30.60
2014,08,11,17,08,30.60
2014,08,11,17,09,30.60
2014,08,11,17,10,30.60
2014,08,11,17,11,30.60
2014,08,11,17,12,30.60
2014,08,11,17,13,30.60
2014,08,11,17,14,30.60
2014,08,11,17,15,30.50
2014,08,11,17,16,30.50
2014,08,11,17,17,30.40
2014,08,11,17,18,30.40
2014,08,11,17,19,30.30